Weather History for Seminole, TX

Change the Weather History Date:

Monday, January 27, 2014

  Actual Average (KHOB) Record (KHOB)
Temperature  
Mean Temperature 34 °F -  
Max Temperature 48 °F 56 °F 75 °F (2002)
Min Temperature 20 °F 30 °F 19 °F (1950)
Degree Days  
Heating Degree Days 30    
Moisture  
Dew Point 4 °F    
Average Humidity 33    
Maximum Humidity 71    
Minimum Humidity 21    
Precipitation  
Precipitation 0.00 in - - ()
Sea Level Pressure  
Sea Level Pressure 30.16 in    
Wind  
Wind Speed 13 mph (ENE)    
Max Wind Speed 29 mph    
Max Gust Speed 41 mph    
Visibility 10 miles    
Events      
Averages and records for this station are not official NWS values.
T = Trace of Precipitation, MM = Missing Value Source: NWS Daily Summary

Daily Weather History Graph

Daily Weather History Graph

Search for Another Location

Airport:

Trip Planner

Search our weather history database for the weather conditions in past years. The results will help you decide how hot, cold, wet, or windy it might be!

Date:

Astronomy

Jan. 27, 2014 Rise Set
Actual Time 7:48 AM CST 6:18 PM CST
Civil Twilight 7:22 AM CST 6:44 PM CST
Nautical Twilight 6:52 AM CST 7:14 PM CST
Astronomical Twilight 6:23 AM CST 7:43 PM CST
Moon 4:29 AM CST (1/27) 3:09 PM CST (1/27)
Length of Visible Light 11h 22m
Length of Day
10h 30m
Waning Crescent, 14% of the Moon is Illuminated
Jan 27
Waning Crescent
Jan 30
New
Feb 6
First Quarter
Feb 14
Full
Feb 22
Last Quarter

Hourly Weather History & Observations

Time (CST) Temp. Windchill Dew Point Humidity Pressure Visibility Wind Dir Wind Speed Gust Speed Precip Events Conditions
12:15 AM 48.4 °F - 13.3 °F 24% 29.89 in 10.0 mi West 12.7 mph - N/A   Clear
12:35 AM 48.2 °F - 13.6 °F 25% 29.89 in 10.0 mi West 11.5 mph - N/A   Clear
12:55 AM 45.7 °F 40.2 °F 13.6 °F 28% 29.90 in 10.0 mi West 11.5 mph - N/A   Clear
1:15 AM 46.2 °F 40.8 °F 14.0 °F 27% 29.89 in 10.0 mi West 11.5 mph - N/A   Clear
1:35 AM 43.0 °F 38.8 °F 14.4 °F 31% 29.90 in 10.0 mi West 6.9 mph - N/A   Clear
1:55 AM 41.5 °F 37.1 °F 13.8 °F 32% 29.90 in 10.0 mi NW 6.9 mph - N/A   Clear
2:15 AM 39.2 °F 34.2 °F 13.6 °F 35% 29.91 in 10.0 mi WNW 6.9 mph - N/A   Clear
2:35 AM 37.4 °F 33.8 °F 13.5 °F 38% 29.91 in 10.0 mi WNW 4.6 mph - N/A   Clear
2:55 AM 36.3 °F 30.8 °F 14.0 °F 40% 29.93 in 10.0 mi NNW 6.9 mph - N/A   Clear
3:15 AM 37.6 °F 31.0 °F 13.1 °F 37% 29.98 in 10.0 mi NNE 9.2 mph - N/A   Clear
3:35 AM 41.2 °F 33.7 °F 14.9 °F 34% 30.01 in 10.0 mi NE 13.8 mph - N/A   Clear
3:55 AM 43.0 °F 35.7 °F 24.4 °F 48% 30.02 in 10.0 mi NE 15.0 mph 24.2 mph N/A   Clear
4:15 AM 42.6 °F 32.4 °F 25.7 °F 51% 30.04 in 7.0 mi NE 27.6 mph 41.4 mph N/A   Scattered Clouds
4:35 AM 35.8 °F 23.9 °F 25.2 °F 65% 30.08 in 4.0 mi NE 24.2 mph 31.1 mph N/A   Haze
4:55 AM 32.9 °F 19.1 °F 24.4 °F 71% 30.10 in 5.0 mi NE 28.8 mph 35.7 mph N/A   Haze
5:15 AM 31.8 °F 17.6 °F 21.6 °F 66% 30.11 in 7.0 mi NE 28.8 mph 36.8 mph N/A   Scattered Clouds
5:35 AM 30.0 °F 17.5 °F 18.1 °F 61% 30.12 in 7.0 mi NE 19.6 mph 35.7 mph N/A   Clear
5:55 AM 28.8 °F 15.9 °F 14.9 °F 56% 30.14 in 7.0 mi NE 19.6 mph 28.8 mph N/A   Clear
6:15 AM 28.0 °F 14.6 °F 14.0 °F 56% 30.16 in 10.0 mi NE 20.7 mph 29.9 mph N/A   Clear
6:35 AM 27.5 °F 13.9 °F 12.7 °F 54% 30.18 in 10.0 mi NE 20.7 mph 27.6 mph N/A   Clear
6:55 AM 27.0 °F 12.8 °F 11.8 °F 53% 30.18 in 10.0 mi NE 21.9 mph 26.5 mph N/A   Clear
7:15 AM 26.4 °F 12.8 °F 10.2 °F 51% 30.20 in 10.0 mi NE 19.6 mph 27.6 mph N/A   Clear
7:35 AM 26.1 °F 11.3 °F 9.1 °F 49% 30.23 in 10.0 mi NE 23.0 mph - N/A   Clear
7:55 AM 25.7 °F 10.2 °F 5.2 °F 42% 30.23 in 10.0 mi NE 25.3 mph 28.8 mph N/A   Clear
8:15 AM 25.7 °F 11.9 °F 5.2 °F 42% 30.26 in 10.0 mi NE 19.6 mph 26.5 mph N/A   Clear
8:35 AM 26.4 °F 14.5 °F 5.7 °F 41% 30.29 in 10.0 mi NNE 15.0 mph 21.9 mph N/A   Clear
8:55 AM 26.2 °F 13.0 °F 3.9 °F 39% 30.29 in 10.0 mi NE 18.4 mph 21.9 mph N/A   Clear
9:15 AM 26.8 °F 12.9 °F 0.9 °F 33% 30.30 in 10.0 mi NE 20.7 mph 26.5 mph N/A   Clear
9:35 AM 27.7 °F 14.5 °F -0.0 °F 30% 30.31 in 10.0 mi NE 19.6 mph 26.5 mph N/A   Clear
9:55 AM 28.0 °F 17.0 °F -0.2 °F 30% 30.32 in 10.0 mi NE 13.8 mph 19.6 mph N/A   Clear
10:15 AM 28.4 °F 15.8 °F -0.0 °F 29% 30.32 in 10.0 mi NNE 18.4 mph 24.2 mph N/A   Clear
10:35 AM 28.6 °F 16.8 °F -1.1 °F 28% 30.33 in 10.0 mi NE 16.1 mph 21.9 mph N/A   Clear
10:55 AM 29.3 °F 18.2 °F -1.5 °F 27% 30.33 in 10.0 mi NE 15.0 mph 24.2 mph N/A   Clear
11:15 AM 29.8 °F 18.0 °F -2.0 °F 25% 30.34 in 10.0 mi ENE 17.3 mph 23.0 mph N/A   Clear
11:35 AM 30.9 °F 21.7 °F -1.3 °F 25% 30.33 in 10.0 mi NE 11.5 mph 17.3 mph N/A   Clear
11:55 AM 31.1 °F 20.9 °F -2.0 °F 24% 30.31 in 10.0 mi NE 13.8 mph 20.7 mph N/A   Clear
12:15 PM 31.1 °F 23.1 °F -3.3 °F 23% 30.32 in 10.0 mi NE 9.2 mph 17.3 mph N/A   Clear
12:35 PM 30.2 °F 21.9 °F -3.1 °F 24% 30.30 in 10.0 mi NE 9.2 mph - N/A   Clear
12:55 PM 29.8 °F 20.3 °F -4.0 °F 23% 30.27 in 10.0 mi NE 11.5 mph 16.1 mph N/A   Clear
1:15 PM 30.0 °F 19.5 °F -3.6 °F 23% 30.24 in 10.0 mi ENE 13.8 mph 18.4 mph N/A   Clear
1:35 PM 30.9 °F 22.2 °F -3.3 °F 23% 30.23 in 10.0 mi NE 10.4 mph - N/A   Clear
1:55 PM 32.4 °F 24.6 °F -2.2 °F 23% 30.23 in 10.0 mi East 9.2 mph - N/A   Clear
2:15 PM 32.4 °F 24.0 °F -2.2 °F 23% 30.20 in 10.0 mi East 10.4 mph 16.1 mph N/A   Clear
2:35 PM 32.7 °F 23.4 °F -2.6 °F 22% 30.20 in 10.0 mi ENE 12.7 mph - N/A   Clear
2:55 PM 33.3 °F 26.4 °F -2.6 °F 22% 30.18 in 10.0 mi East 8.1 mph - N/A   Clear
3:15 PM 33.3 °F 25.7 °F -2.4 °F 22% 30.17 in 10.0 mi ENE 9.2 mph - N/A   Clear
3:35 PM 34.0 °F 27.2 °F -2.2 °F 21% 30.17 in 10.0 mi East 8.1 mph - N/A   Clear
3:55 PM 34.2 °F 29.0 °F -2.0 °F 21% 30.17 in 10.0 mi ENE 5.8 mph - N/A   Clear
4:15 PM 34.0 °F 28.8 °F -2.0 °F 22% 30.16 in 10.0 mi NE 5.8 mph - N/A   Clear
4:35 PM 33.8 °F 29.6 °F -2.0 °F 22% 30.16 in 10.0 mi East 4.6 mph - N/A   Clear
4:55 PM 33.6 °F 26.2 °F -1.8 °F 22% 30.15 in 10.0 mi East 9.2 mph - N/A   Clear
5:15 PM 33.4 °F 27.3 °F -1.7 °F 22% 30.15 in 10.0 mi ESE 6.9 mph 17.3 mph N/A   Clear
5:35 PM 32.9 °F 27.5 °F -1.7 °F 23% 30.15 in 10.0 mi ESE 5.8 mph - N/A   Clear
5:55 PM 32.0 °F 24.8 °F -2.0 °F 23% 30.16 in 10.0 mi East 8.1 mph - N/A   Clear
6:15 PM 31.5 °F 24.9 °F -2.2 °F 24% 30.15 in 10.0 mi East 6.9 mph - N/A   Clear
6:35 PM 30.6 °F 23.8 °F -2.4 °F 24% 30.16 in 10.0 mi East 6.9 mph - N/A   Clear
6:55 PM 30.6 °F 23.1 °F -2.4 °F 24% 30.16 in 10.0 mi East 8.1 mph - N/A   Clear
7:15 PM 30.6 °F 23.1 °F -2.4 °F 24% 30.15 in 10.0 mi East 8.1 mph - N/A   Clear
7:35 PM 30.2 °F 21.3 °F -2.4 °F 25% 30.17 in 10.0 mi East 10.4 mph - N/A   Clear
7:55 PM 29.5 °F 20.4 °F -2.2 °F 26% 30.16 in 10.0 mi East 10.4 mph - N/A   Clear
8:15 PM 29.1 °F 21.3 °F -1.8 °F 26% 30.16 in 10.0 mi East 8.1 mph - N/A   Clear
8:35 PM 28.0 °F 18.6 °F -1.3 °F 28% 30.15 in 10.0 mi East 10.4 mph - N/A   Clear
8:55 PM 27.0 °F 16.7 °F -1.3 °F 30% 30.16 in 10.0 mi ESE 11.5 mph - N/A   Clear
9:15 PM 25.7 °F 16.4 °F -1.7 °F 31% 30.17 in 10.0 mi East 9.2 mph - N/A   Clear
9:35 PM 24.8 °F 16.1 °F -2.2 °F 31% 30.18 in 10.0 mi East 8.1 mph - N/A   Clear
9:55 PM 24.1 °F 15.2 °F -2.2 °F 32% 30.17 in 10.0 mi ESE 8.1 mph - N/A   Clear
10:15 PM 23.5 °F 13.7 °F -2.4 °F 32% 30.16 in 10.0 mi ESE 9.2 mph - N/A   Clear
10:35 PM 22.8 °F 12.9 °F -2.6 °F 33% 30.18 in 10.0 mi ESE 9.2 mph - N/A   Clear
10:55 PM 22.1 °F 12.8 °F -3.5 °F 33% 30.17 in 10.0 mi ESE 8.1 mph - N/A   Clear
11:15 PM 21.9 °F 11.7 °F -4.9 °F 31% 30.18 in 10.0 mi ESE 9.2 mph - N/A   Clear
11:35 PM 21.2 °F 12.6 °F -5.4 °F 31% 30.18 in 10.0 mi East 6.9 mph - N/A   Clear
11:55 PM 20.5 °F 8.6 °F -6.9 °F 30% 30.18 in 10.0 mi East 11.5 mph - N/A   Clear